Location: Newark
(34.9500°N, 139.9667°E)
Time: 11:26:00
(UTC+00:00)

Transit 2A - Pass Details

Date: 15 December 2019
Orbit: 601 x 957 km, 66.7° (Epoch: 20 January)

Event Time Altitude Azimuth Distance (km) Brightness Sun altitude
Rises 06:05:02 0° 328° (NNW) 2,903 8.9 13.4°
Reaches altitude 10° 06:07:15 10° 324° (NW) 2,024 8.2 13.1°
Maximum altitude 06:11:42 56° 246° (WSW) 800 7.0 12.4°
Drops below altitude 10° 06:16:31 10° 169° (S) 2,192 8.8 11.6°
Sets 06:19:01 0° 165° (SSE) 3,169 9.5 11.2°
